Simultaneous Nadir Overpasses (SNOs) Predictions

Prediction of SNOs between METOP-A and METOP-B Satellite Orbit:

Table of predicted SNOs for the next 14.0 days since TLE Epoch: 11/19/2021
Index Date (METOP-A) Time (METOP-A) Lat,Lon (METOP-A) SZA (METOP-A ) Date (METOP-B) Time (METOP-B) Lat,Lon (METOP-B) SZA (METOP-B ) Distance(km) Time Diff (sec)
1 11/19/2021 20:11:34 -81.24, 101.04 76.41 11/19/2021 20:10:20 -81.24, 101.05 76.45 0.12 74
2 11/19/2021 21:01:52 81.25, -91.67 103.59 11/19/2021 21:01:01 81.24, -91.76 103.55 1.84 51
3 11/19/2021 21:52:23 -81.24, 75.80 76.40 11/19/2021 21:51:41 -81.25, 75.93 76.40 2.30 42
4 11/19/2021 22:42:41 81.25,-116.90 103.60 11/19/2021 22:42:22 81.24,-116.88 103.59 0.58 19
5 11/19/2021 23:33:12 -81.24, 50.56 76.39 11/19/2021 23:33:03 -81.24, 50.43 76.41 2.11 9
6 11/20/2021 00:23:30 81.25,-142.13 103.62 11/20/2021 00:23:43 81.25,-141.99 103.64 2.28 13
7 11/20/2021 01:14:01 -81.24, 25.31 76.38 11/20/2021 01:14:24 -81.25, 25.32 76.36 0.26 23
8 11/20/2021 02:04:19 81.25,-167.36 103.63 11/20/2021 02:05:05 81.24,-167.50 103.63 2.40 46
9 11/20/2021 02:54:50 -81.25, 0.07 76.36 11/20/2021 02:55:45 -81.25, 0.20 76.32 2.32 55
10 12/02/2021 20:43:05 -81.30, 91.56 74.24 12/02/2021 20:41:50 -81.20, 91.46 74.36 11.63 75
11 12/02/2021 21:33:27 81.24, -99.61 105.87 12/02/2021 21:32:26 81.24, -99.44 105.87 2.92 61
12 12/02/2021 22:23:50 -81.24, 67.84 74.12 12/02/2021 22:23:07 -81.24, 67.87 74.14 0.66 43
13 12/02/2021 23:14:16 81.24,-124.84 105.88 12/02/2021 23:13:48 81.24,-124.94 105.86 1.76 28
14 12/03/2021 00:04:39 -81.24, 42.59 74.12 12/03/2021 00:04:28 -81.25, 42.75 74.10 2.82 11
15 12/03/2021 00:55:05 81.24,-150.07 105.89 12/03/2021 00:55:09 81.24,-150.06 105.89 0.26 4



Historial Predications of SNOs between METOP-A and METOP-B
